This is the latest recevied weather packets stored in our database for station/object OE6PLD-13. If no packets are shown the sender has not sent any weather packets the latest 10 day(s).
| Time | Temp. | Humidity | Pressure | Rain* | Wind** | Luminosity | Snow |
|---|---|---|---|---|---|---|---|
| 1778176235 | 11.67° C | 87% | 1015.2 hPa | 1.78 mm | - | 0 W/m² | - |
| 1778176051 | 11.67° C | 85% | 1015.4 hPa | 1.78 mm | - | 0 W/m² | - |
| 1778175868 | 12.22° C | 85% | 1015 hPa | 0.76 mm | - | 0 W/m² | - |
| 1778175685 | 12.22° C | 85% | 1014.8 hPa | 0.76 mm | - | 0 W/m² | - |
| 1778175501 | 12.78° C | 83% | 1015 hPa | 0 mm | - | 0 W/m² | - |
| 1778175318 | 12.78° C | 80% | 1014.8 hPa | 0 mm | - | 0 W/m² | - |
| 1778175135 | 13.33° C | 78% | 1015.1 hPa | 0.76 mm | - | 0 W/m² | - |
| 1778174951 | 13.33° C | 76% | 1015.1 hPa | 0.76 mm | - | 0 W/m² | - |
| 1778174768 | 13.33° C | 75% | 1014.7 hPa | 0.76 mm | - | 0 W/m² | - |
| 1778174585 | 13.33° C | 75% | 1014.3 hPa | 0.76 mm | - | 0 W/m² | - |
| 1778174401 | 13.33° C | 75% | 1014.8 hPa | 0.76 mm | - | 1 W/m² | - |
| 1778174217 | 13.33° C | 76% | 1014.3 hPa | 0.76 mm | - | 2 W/m² | - |
| 1778174034 | 13.33° C | 76% | 1014.7 hPa | 0.76 mm | - | 1 W/m² | - |
| 1778173850 | 13.33° C | 75% | 1014.7 hPa | 0.76 mm | - | 1 W/m² | - |
| 1778173667 | 13.89° C | 74% | 1014.5 hPa | 0.76 mm | - | 2 W/m² | - |
| 1778173484 | 13.89° C | 72% | 1014.8 hPa | 0.76 mm | - | 2 W/m² | - |
| 1778173300 | 15° C | 69% | 1014.7 hPa | 0.76 mm | - | 0 W/m² | - |
| 1778173116 | 15° C | 67% | 1014.6 hPa | 0.76 mm | - | 0 W/m² | - |
| 1778172933 | 15.56° C | 64% | 1014.7 hPa | 0.76 mm | - | 0 W/m² | - |
| 1778172749 | 15.56° C | 63% | 1014.6 hPa | 0.76 mm | - | 0 W/m² | - |
| 1778172566 | 15.56° C | 61% | 1014.6 hPa | 0.76 mm | - | 1 W/m² | - |
| 1778172383 | 16.11° C | 61% | 1014.4 hPa | 0.76 mm | - | 2 W/m² | - |
| 1778172199 | 16.11° C | 61% | 1014.2 hPa | 0.76 mm | - | 0 W/m² | - |
| 1778172016 | 16.11° C | 61% | 1014 hPa | 0.76 mm | - | 0 W/m² | - |
| 1778171833 | 16.67° C | 60% | 1013.9 hPa | 0.76 mm | - | 0 W/m² | - |
* Rain latest hour (hover to see other rain measurements)
** Current wind speed in m/s (hover to see current wind gust speed)